Lid_Strength_Index
1 1 1 1 0 0 0 -0 -0 -1 -1 -0 -0 -0 -0 -0 -0 -0 -0 -0 0 0 0 0 0 -0 1 0 0 0 1 1 3 2 1 -0 0 0 -0 -1 -1 -1 -1
1 1 0 0 0 0 0 -0 -0 -0 -0 -0 -0 -0 0 -0 -0 0 0 0 0 1 1 0 1 0 0 0 1 1 1 1 2 3 1 1 1 -0 -0 0 0 -0 -0
1 1 1 1 0 0 0 -0 -0 -0 -0 -0 -0 0 0 -0 -0 -0 0 0 0 0 0 1 1 1 1 1 1 1 1 1 1 2 2 1 1 0 0 0 0 -0 -0
1 1 1 1 0 0 -0 -0 -0 -0 -0 -0 -0 -0 -0 0 -0 0 0 0 0 0 0 0 0 1 1 1 1 1 1 1 1 2 2 2 1 0 1 2 2 1 1
2 2 1 1 1 1 1 0 -0 -0 0 0 0 -0 -0 0 0 0 0 0 1 1 0 0 0 1 1 1 1 1 1 2 2 2 2 2 2 2 2 1 2 2 1
3 4 3 3 3 2 2 2 2 2 1 1 1 1 0 1 5 6 4 1 0 1 1 1 0 1 1 2 3 2 1 2 2 2 2 3 2 2 1 2 2 3 4
2 3 4 4 4 3 3 3 3 1 1 2 2 2 1 1 6 7 6 2 1 1 1 1 1 1 1 0 2 3 3 3 3 1 2 2 2 1 1 2 2 2 3
3 3 2 2 3 4 4 4 3 2 2 2 3 2 2 2 6 7 6 2 2 2 1 1 1 1 0 1 1 1 2 2 3 3 3 1 0 0 1 1 1 1 1
3 3 3 3 3 5 5 4 3 3 3 2 2 2 1 1 6 8 8 4 4 3 3 2 4 5 7 9 5 4 2 3 4 6 7 8 9 9 6 1 2 3 4
3 3 3 3 3 3 3 3 3 3 3 3 3 3 4 4 7 9 9 9 9 9 8 7 7 7 9 9 7 5 3 3 1 2 2 3 6 2 5 1 1 4 4
3 3 3 3 3 3 3 3 3 4 4 5 6 5 6 7 9 11 10 9 7 7 6 5 5 8 9 9 9 5 3 3 3 3 2 2 2 1 1 0 0 2 3
4 4 4 4 4 4 4 5 5 6 7 8 9 9 9 8 9 9 9 9 8 7 7 5 5 8 9 8 8 8 9 8 3 3 3 3 3 2 1 1 0 0 -0
4 4 4 5 6 6 7 8 9 8 10 11 11 11 9 7 7 8 9 9 9 7 7 7 9 9 9 8 8 8 9 6 5 4 4 4 3 1 1 1 0 0 -0
6 6 7 7 8 9 10 10 12 11 11 11 9 9 9 8 8 7 8 7 7 6 7 8 8 8 8 6 6 6 6 4 4 4 4 2 1 2 2 1 2 2 2
9 9 9 11 12 12 12 11 12 10 9 10 10 10 10 10 9 9 10 9 9 9 10 10 9 6 5 4 4 5 4 4 4 2 2 2 2 3 3 2 2 2 3
11 13 14 13 13 13 13 12 11 11 11 11 11 11 9 10 11 11 11 11 11 11 11 11 9 6 5 5 5 5 3 4 2 2 2 3 3 3 4 3 2 3 3
15 14 14 14 14 13 13 12 13 11 11 11 11 11 10 11 11 11 11 11 11 11 11 10 8 6 6 5 4 3 4 4 1 2 2 3 2 3 4 3 3 2 3
14 14 14 14 12 13 12 12 12 12 12 9 9 9 10 11 11 11 11 11 11 11 10 9 8 7 5 4 4 4 3 2 2 2 3 2 2 2 3 3 3 3 3
14 14 13 13 12 13 13 12 12 12 11 10 9 11 10 11 11 11 11 10 10 10 9 9 7 5 5 4 4 3 2 2 2 3 2 2 2 2 3 2 3 7 5
13 13 14 13 13 13 13 13 13 12 11 11 11 12 11 12 11 10 9 9 9 9 8 8 5 4 4 4 3 2 2 2 2 3 3 2 2 2 2 3 3 3 3
14 13 15 14 14 14 14 15 14 12 12 12 12 12 14 13 11 10 10 10 10 9 9 7 5 5 4 3 3 2 2 2 2 3 3 3 3 3 3 2 2 3 2
12 12 14 15 15 15 15 15 15 14 13 13 12 12 13 12 12 11 10 9 9 9 8 6 5 4 4 3 2 2 3 3 3 3 3 3 3 3 2 2 2 2 2
13 12 13 14 14 15 15 15 16 16 15 14 13 13 13 13 13 13 12 9 8 8 7 6 5 4 4 3 1 2 3 3 2 2 2 2 2 2 2 2 2 2 2
14 14 15 15 15 15 15 15 15 16 16 15 15 14 13 13 13 13 12 11 10 8 6 6 5 4 4 4 2 3 2 2 3 4 3 2 2 2 2 2 2 2 2
16 15 14 14 14 15 15 15 15 15 16 16 16 16 15 13 13 13 13 12 11 9 7 6 5 4 4 4 3 5 11 12 7 11 3 2 1 1 2 2 1 1 2
16 15 14 14 14 14 15 15 15 15 15 15 15 16 15 14 13 13 13 13 12 11 9 6 5 5 4 3 3 9 12 12 8 13 7 3 1 1 2 2 1 2 2